This is the latest recevied weather packets stored in our database for station/object KC7UNY-13. If no packets are shown the sender has not sent any weather packets the latest 1 day(s).
| Time | Temp. | Humidity | Pressure | Rain* | Wind** | Luminosity | Snow |
|---|---|---|---|---|---|---|---|
| 1778024142 | 25.56° C | 28% | 1009.4 hPa | 0 mm | 1.34 m/s, 295° | 296 W/m² | - |
| 1778023840 | 25.56° C | 28% | 1009.5 hPa | 0 mm | 1.34 m/s, 304° | 311 W/m² | - |
| 1778023537 | 25.56° C | 29% | 1009.6 hPa | 0 mm | 2.68 m/s, 302° | 327 W/m² | - |
| 1778023235 | 25° C | 28% | 1009.6 hPa | 0 mm | 1.34 m/s, 307° | 343 W/m² | - |
| 1778022931 | 25.56° C | 28% | 1009.5 hPa | 0 mm | 1.34 m/s, 16° | 363 W/m² | - |
| 1778022630 | 25° C | 28% | 1009.6 hPa | 0 mm | 1.79 m/s, 309° | 375 W/m² | - |
| 1778022327 | 25.56° C | 29% | 1009.5 hPa | 0 mm | 3.58 m/s, 286° | 392 W/m² | - |
| 1778022024 | 26.67° C | 28% | 1009.5 hPa | 0 mm | 2.24 m/s, 275° | 413 W/m² | - |
| 1778021720 | 25.56° C | 29% | 1009.5 hPa | 0 mm | 1.79 m/s, 242° | 440 W/m² | - |
| 1778021416 | 25° C | 30% | 1009.5 hPa | 0 mm | 1.79 m/s, 57° | 463 W/m² | - |
| 1778021114 | 25.56° C | 29% | 1009.5 hPa | 0 mm | 3.13 m/s, 311° | 496 W/m² | - |
| 1778020811 | 25° C | 30% | 1009.6 hPa | 0 mm | 1.79 m/s, 251° | 551 W/m² | - |
| 1778020508 | 25° C | 30% | 1009.6 hPa | 0 mm | 1.34 m/s, 288° | 201 W/m² | - |
| 1778020216 | 26.67° C | 28% | 1009.8 hPa | 0 mm | 0.89 m/s, 315° | 129 W/m² | - |
| 1778019901 | 25.56° C | 29% | 1009.8 hPa | 0 mm | 1.34 m/s, 7° | 567 W/m² | - |
| 1778019596 | 25.56° C | 30% | 1009.8 hPa | 0 mm | 1.79 m/s, 317° | 589 W/m² | - |
| 1778019293 | 25° C | 30% | 1010.1 hPa | 0 mm | 1.79 m/s, 268° | 644 W/m² | - |
| 1778018990 | 25° C | 30% | 1009.9 hPa | 0 mm | 1.79 m/s, 317° | 137 W/m² | - |
| 1778018688 | 25° C | 30% | 1010 hPa | 0 mm | 2.68 m/s, 305° | 603 W/m² | - |
| 1778018385 | 25.56° C | 30% | 1010.1 hPa | 0 mm | 3.13 m/s, 291° | 622 W/m² | - |
| 1778018083 | 25° C | 30% | 1010 hPa | 0 mm | 2.24 m/s, 258° | 633 W/m² | - |
| 1778017781 | 25° C | 30% | 1010.2 hPa | 0 mm | 2.24 m/s, 304° | 161 W/m² | - |
| 1778017478 | 25.56° C | 30% | 1010 hPa | 0 mm | 3.58 m/s, 259° | 451 W/m² | - |
| 1778017175 | 25° C | 31% | 1010.2 hPa | 0 mm | 1.79 m/s, 285° | 549 W/m² | - |
| 1778016873 | 25.56° C | 31% | 1010.3 hPa | 0 mm | 0.89 m/s, 282° | 221 W/m² | - |
* Rain latest hour (hover to see other rain measurements)
** Current wind speed in m/s (hover to see current wind gust speed)